User: anonymous   Login
Location: Unspecified
(0.0000°N, 0.0000°E)
Time: 08:58:35
(UTC+00:00)
Language:

NUSAT 2 - Orbit

View from above orbital plane
View from above orbital plane
View from above satellite
View from above satellite

Ground track
Ground track

The orbit data is extracted from the following two-line orbital elements,

1 41558U 16033C   18112.18611491  .00001830  00000-0  69542-4 0  9992
2 41558  97.4399 196.5969 0013131   2.0729 358.0562 15.28035420105599
Epoch (UTC): 22 April 2018 04:28:00
Eccentricity: 0.0013131
inclination: 97.4399°
perigee height: 472 km
apogee height: 491 km
right ascension of ascending node: 196.5969°
argument of perigee: 2.0729°
revolutions per day: 15.28035420
mean anomaly at epoch: 358.0562°
orbit number at epoch: 10559

The dashed part of the orbit path shows where the satellite is in the earth's shadow,  

DLR